Location: Gleizolles
(44.4833°N, 6.7667°E)
Time: 04:41:17
(UTC+00:00)

Transit 4A - Pass Details

Date: 04 July 2024
Orbit: 870 x 973 km, 66.8° (Epoch: 14 July)

Event Time Altitude Azimuth Distance (km) Brightness Sun altitude
Rises 20:24:40 0° 245° (WSW) 3,454 11.2 -9.6°
Reaches altitude 10° 20:27:29 10° 257° (WSW) 2,516 10.6 -10.0°
Maximum altitude 20:32:28 29° 316° (NW) 1,551 10.0 -10.6°
Drops below altitude 10° 20:37:30 10° 16° (NNE) 2,537 10.6 -11.2°
Sets 20:40:22 0° 28° (NNE) 3,488 11.2 -11.5°
